FW2728 Weather Reports


Display with metric or nautical units.
time (UTC)temp
F
wind
direction
speed
MPH
gust
MPH
rain 1hr
in
rain 24hr
in
rain mn
in
humidity
%
barometer
mb
20260831014017 94 165 0.0 2.0 0.00 0.00 0.00 39 1012.8
20260831013017 94 168 0.0 2.0 0.00 0.00 0.00 38 1012.8
20260831012018 95 197 1.0 4.0 0.00 0.00 0.00 37 1012.6
20260831011018 95 179 1.0 4.0 0.00 0.00 0.00 36 1012.6
20260831010018 96 212 0.0 3.0 0.00 0.00 0.00 35 1012.6
20260831005018 96 202 1.0 4.0 0.00 0.00 0.00 34 1012.5
20260831004038 97 196 1.0 4.0 0.00 0.00 0.00 34 1012.4
20260831003015 97 179 2.0 6.0 0.00 0.00 0.00 33 1012.4
20260831002016 98 218 2.0 8.0 0.00 0.00 0.00 32 1012.4
20260831001016 99 214 1.0 3.0 0.00 0.00 0.00 31 1012.5
20260831000016 99 228 2.0 5.0 0.00 0.00 0.00 30 1012.6
20260830235016 100 229 2.0 7.0 0.00 0.00 0.00 29 1012.6
20260830234017 100 161 2.0 6.0 0.00 0.00 0.00 29 1012.6
20260830233057 100 193 3.0 7.0 0.00 0.00 0.00 30 1012.7
20260830232057 101 211 3.0 7.0 0.00 0.00 0.00 29 1012.5
20260830231017 100 184 3.0 7.0 0.00 0.00 0.00 29 1012.5
20260830230017 100 227 2.0 5.0 0.00 0.00 0.00 29 1012.7
20260830225017 100 142 2.0 6.0 0.00 0.00 0.00 29 1012.8
20260830224017 101 132 3.0 8.0 0.00 0.00 0.00 28 1012.8
20260830223017 101 130 3.0 12.0 0.00 0.00 0.00 28 1012.8
20260830222018 101 156 3.0 7.0 0.00 0.00 0.00 28 1012.8
20260830221018 101 199 3.0 7.0 0.00 0.00 0.00 28 1012.9
20260830220018 102 228 4.0 8.0 0.00 0.00 0.00 27 1012.9
20260830215058 102 219 3.0 7.0 0.00 0.00 0.00 27 1012.8
20260830214015 102 241 2.0 7.0 0.00 0.00 0.00 26 1012.8
20260830213015 101 189 3.0 10.0 0.00 0.00 0.00 27 1012.9
20260830212016 101 97 2.0 7.0 0.00 0.00 0.00 27 1013.1
20260830211016 101 215 4.0 8.0 0.00 0.00 0.00 28 1013.2
20260830210016 101 203 3.0 7.0 0.00 0.00 0.00 28 1013.3
20260830205036 101 147 3.0 7.0 0.00 0.00 0.00 28 1013.5
20260830204016 102 179 2.0 8.0 0.00 0.00 0.00 27 1013.6
20260830203017 101 227 4.0 8.0 0.00 0.00 0.00 29 1013.7
20260830202037 101 218 4.0 9.0 0.00 0.00 0.00 29 1013.9
20260830201017 101 105 3.0 7.0 0.00 0.00 0.00 28 1014.0
20260830200037 101 174 3.0 8.0 0.00 0.00 0.00 29 1014.1
20260830195037 100 140 3.0 11.0 0.00 0.00 0.00 30 1014.2
20260830194017 100 209 3.0 10.0 0.00 0.00 0.00 30 1014.4
20260830193017 100 221 3.0 7.0 0.00 0.00 0.00 30 1014.6
20260830192038 100 210 3.0 6.0 0.00 0.00 0.00 31 1014.6
20260830191018 99 222 4.0 9.0 0.00 0.00 0.00 33 1014.8
20260830190018 100 176 3.0 8.0 0.00 0.00 0.00 32 1014.8
20260830185058 99 195 3.0 10.0 0.00 0.00 0.00 33 1015.0
20260830184015 99 166 2.0 6.0 0.00 0.00 0.00 33 1015.1
20260830183015 99 192 3.0 8.0 0.00 0.00 0.00 34 1015.3
20260830182035 99 202 4.0 11.0 0.00 0.00 0.00 33 1015.4
20260830181016 98 139 3.0 7.0 0.00 0.00 0.00 34 1015.5
20260830180016 98 211 4.0 9.0 0.00 0.00 0.00 34 1015.7
20260830175016 98 224 3.0 8.0 0.00 0.00 0.00 34 1015.8
20260830174016 97 147 3.0 8.0 0.00 0.00 0.00 35 1016.0
20260830173016 97 197 3.0 7.0 0.00 0.00 0.00 35 1016.2
20260830172016 97 199 3.0 6.0 0.00 0.00 0.00 35 1016.3
20260830171017 96 172 4.0 8.0 0.00 0.00 0.00 35 1016.4
20260830170037 96 233 3.0 7.0 0.00 0.00 0.00 39 1016.5
20260830165017 95 230 3.0 7.0 0.00 0.00 0.00 40 1016.7
20260830164017 95 241 4.0 8.0 0.00 0.00 0.00 41 1016.8
20260830163017 94 243 3.0 6.0 0.00 0.00 0.00 43 1016.9
20260830162018 94 207 2.0 7.0 0.00 0.00 0.00 44 1016.9
20260830161018 93 215 3.0 8.0 0.00 0.00 0.00 44 1016.9
20260830160018 93 202 4.0 8.0 0.00 0.00 0.00 45 1017.0
20260830155018 92 238 4.0 8.0 0.00 0.00 0.00 46 1016.9
20260830154018 91 206 4.0 8.0 0.00 0.00 0.00 47 1017.0
20260830153018 92 201 3.0 9.0 0.00 0.00 0.00 49 1016.9
20260830152018 91 220 2.0 4.0 0.00 0.00 0.00 52 1016.9
20260830151015 90 235 3.0 6.0 0.00 0.00 0.00 51 1016.9
20260830150016 89 218 3.0 7.0 0.00 0.00 0.00 53 1016.9
20260830145015 89 196 2.0 6.0 0.00 0.00 0.00 55 1016.8
20260830144016 88 203 2.0 5.0 0.00 0.00 0.00 57 1016.8
20260830143016 87 203 2.0 5.0 0.00 0.00 0.00 59 1016.9
20260830142016 86 236 2.0 5.0 0.00 0.00 0.00 59 1016.9
20260830141017 86 220 1.0 4.0 0.00 0.00 0.00 61 1016.9
20260830140017 85 228 1.0 4.0 0.00 0.00 0.00 62 1016.9
20260830135017 85 196 2.0 4.0 0.00 0.00 0.00 64 1016.9
20260830134017 84 217 1.0 4.0 0.00 0.00 0.00 65 1016.9
20260830133017 83 184 1.0 3.0 0.00 0.00 0.00 66 1016.8
20260830132017 83 170 0.0 2.0 0.00 0.00 0.00 67 1016.7
20260830131017 81 0.0 0.0 0.00 0.00 0.00 70 1016.6
20260830130017 80 181 0.0 1.0 0.00 0.00 0.00 71 1016.5
20260830125018 79 159 0.0 1.0 0.00 0.00 0.00 75 1016.5
20260830124018 79 79 0.0 1.0 0.00 0.00 0.00 75 1016.4
20260830123018 79 73 0.0 1.0 0.00 0.00 0.00 74 1016.3
20260830122016 79 55 0.0 1.0 0.00 0.00 0.00 74 1016.1
20260830121036 79 74 0.0 1.0 0.00 0.00 0.00 73 1016.0
20260830120036 80 0.0 0.0 0.00 0.00 0.00 72 1015.8
20260830115036 80 123 0.0 2.0 0.00 0.00 0.00 71 1015.7
20260830114016 80 217 0.0 1.0 0.00 0.00 0.00 70 1015.6
20260830113016 81 208 1.0 4.0 0.00 0.00 0.00 69 1015.5
20260830112016 81 212 1.0 3.0 0.00 0.00 0.00 68 1015.4
20260830111017 81 216 2.0 4.0 0.00 0.00 0.00 68 1015.3
20260830110017 81 213 2.0 5.0 0.00 0.00 0.00 67 1015.2
20260830105017 81 233 2.0 4.0 0.00 0.00 0.00 67 1015.1
20260830104037 82 209 1.0 6.0 0.00 0.00 0.00 66 1015.1
20260830103037 82 220 2.0 5.0 0.00 0.00 0.00 65 1015.0
20260830102018 82 224 1.0 4.0 0.00 0.00 0.00 65 1014.9
20260830101018 83 216 2.0 4.0 0.00 0.00 0.00 64 1015.0
20260830100038 83 210 1.0 4.0 0.00 0.00 0.00 63 1015.0
20260830095018 83 211 2.0 5.0 0.00 0.00 0.00 63 1015.0
20260830094016 84 217 2.0 5.0 0.00 0.00 0.00 62 1014.9
20260830093016 84 222 2.0 4.0 0.00 0.00 0.00 61 1014.8
20260830092016 84 235 2.0 4.0 0.00 0.00 0.00 61 1014.9
20260830091016 84 226 2.0 5.0 0.00 0.00 0.00 60 1014.8
20260830090016 85 221 2.0 5.0 0.00 0.00 0.00 59 1014.8
20260830085016 85 225 2.0 7.0 0.00 0.00 0.00 59 1014.8
20260830084056 85 218 2.0 6.0 0.00 0.00 0.00 59 1014.8
20260830083016 84 221 3.0 7.0 0.00 0.00 0.00 58 1014.8
20260830082017 84 218 2.0 7.0 0.00 0.00 0.00 58 1014.8
20260830081017 84 211 2.0 6.0 0.00 0.00 0.00 57 1014.9
20260830080017 84 227 2.0 5.0 0.00 0.00 0.00 56 1014.9
20260830075017 84 210 2.0 6.0 0.00 0.00 0.00 55 1014.9
20260830074017 84 214 2.0 5.0 0.00 0.00 0.00 55 1014.9
20260830073017 84 214 2.0 5.0 0.00 0.00 0.00 54 1014.9
20260830072017 85 228 2.0 6.0 0.00 0.00 0.00 54 1014.9
20260830071018 85 227 2.0 4.0 0.00 0.00 0.00 54 1014.9
20260830070118 85 222 2.0 5.0 0.00 0.00 0.00 53 1015.0
20260830065018 85 217 2.0 4.0 0.00 0.00 0.00 53 1015.0
20260830064015 85 215 2.0 4.0 0.00 0.00 0.00 52 1015.0
20260830063015 86 230 2.0 4.0 0.00 0.00 0.00 52 1015.1
20260830062016 86 221 1.0 3.0 0.00 0.00 0.00 51 1015.0
20260830061015 86 215 2.0 4.0 0.00 0.00 0.00 50 1015.0
20260830060016 87 209 1.0 3.0 0.00 0.00 0.00 49 1015.1
20260830055017 87 213 1.0 4.0 0.00 0.00 0.00 49 1015.1
20260830054037 88 182 1.0 2.0 0.00 0.00 0.00 47 1015.1
20260830053038 88 218 2.0 6.0 0.00 0.00 0.00 47 1015.0
20260830052017 88 209 2.0 4.0 0.00 0.00 0.00 46 1015.0
20260830051018 88 217 2.0 6.0 0.00 0.00 0.00 45 1014.9
20260830050017 89 214 1.0 4.0 0.00 0.00 0.00 45 1015.0
20260830045018 89 199 1.0 6.0 0.00 0.00 0.00 44 1015.0
20260830044015 89 200 1.0 5.0 0.00 0.00 0.00 44 1015.1
20260830043018 89 198 1.0 5.0 0.00 0.00 0.00 44 1015.0
20260830042018 89 198 1.0 3.0 0.00 0.00 0.00 43 1015.0
20260830041035 90 174 0.0 2.0 0.00 0.00 0.00 43 1014.9
20260830040015 90 129 1.0 3.0 0.00 0.00 0.00 42 1014.9
20260830035015 90 165 1.0 3.0 0.00 0.00 0.00 42 1014.9
20260830034016 91 136 0.0 2.0 0.00 0.00 0.00 42 1014.8
20260830033016 91 188 1.0 3.0 0.00 0.00 0.00 41 1014.7
20260830032036 91 205 1.0 4.0 0.00 0.00 0.00 41 1014.6
20260830031036 92 133 0.0 3.0 0.00 0.00 0.00 40 1014.6
20260830030017 92 169 1.0 3.0 0.00 0.00 0.00 40 1014.5
20260830025017 92 152 1.0 4.0 0.00 0.00 0.00 39 1014.4
20260830024017 93 195 1.0 4.0 0.00 0.00 0.00 39 1014.3
20260830023017 93 187 1.0 2.0 0.00 0.00 0.00 38 1014.2
20260830022017 93 124 1.0 3.0 0.00 0.00 0.00 38 1014.1
20260830021018 94 161 1.0 4.0 0.00 0.00 0.00 37 1014.0
20260830020038 94 126 1.0 5.0 0.00 0.00 0.00 37 1014.0
20260830015018 94 129 0.0 2.0 0.00 0.00 0.00 37 1013.8